When you browse on this site, cookies collect data to enhance your experience and personalize the content and advertising you see.
Visit our Privacy Policy to learn more. By continuing to use the site, you agree to this use of cookies and data.
  • en France
  • Liste des pays
  • À 7 jours
  • Température de l'eau
  • Carte satellitaire
  • Carte météo
  • Widgets météo
  • user-avatar
    Se connecter

    Météo par heure à Zaranj

    Ce jour, 26 Avril, Vendredi

    Heure Température Précipitation Vent Pression Humidité
    00:00 +18°C° 0 mm 10 m/s 720 mmHg 32%
    01:00 +17°C° 0 mm 10 m/s 720 mmHg 34%
    02:00 +17°C° 0 mm 10 m/s 720 mmHg 34%
    03:00 +16°C° 0 mm 10 m/s 720 mmHg 35%
    04:00 +14°C° 0 mm 11 m/s 720 mmHg 36%
    05:00 +14°C° 0 mm 11 m/s 720 mmHg 36%
    06:00 +14°C° 0 mm 10 m/s 721 mmHg 35%
    07:00 +16°C° 0 mm 10 m/s 721 mmHg 35%
    08:00 +17°C° 0 mm 10 m/s 721 mmHg 31%
    09:00 +19°C° 0 mm 9 m/s 721 mmHg 27%
    10:00 +21°C° 0 mm 9 m/s 722 mmHg 23%
    11:00 +22°C° 0 mm 9 m/s 721 mmHg 21%
    12:00 +24°C° 0 mm 8 m/s 721 mmHg 19%
    13:00 +26°C° 0 mm 7 m/s 721 mmHg 16%
    14:00 +26°C° 0 mm 7 m/s 720 mmHg 16%
    15:00 +27°C° 0 mm 6 m/s 720 mmHg 16%
    16:00 +27°C° 0 mm 5 m/s 719 mmHg 15%
    17:00 +27°C° 0 mm 5 m/s 719 mmHg 17%
    18:00 +26°C° 0 mm 6 m/s 719 mmHg 18%
    19:00 +24°C° 0 mm 6 m/s 719 mmHg 19%
    20:00 +23°C° 0 mm 7 m/s 720 mmHg 22%
    21:00 +23°C° 0 mm 8 m/s 720 mmHg 24%
    22:00 +22°C° 0 mm 8 m/s 720 mmHg 26%
    23:00 +21°C° 0 mm 9 m/s 720 mmHg 28%

    Demain, 27 Avril, Samedi

    Heure Température Précipitation Vent Pression Humidité
    00:00 +19°C° 0 mm 9 m/s 720 mmHg 31%
    01:00 +19°C° 0 mm 9 m/s 720 mmHg 33%
    02:00 +18°C° 0 mm 9 m/s 720 mmHg 33%
    03:00 +18°C° 0 mm 10 m/s 720 mmHg 34%
    04:00 +17°C° 0 mm 10 m/s 720 mmHg 34%
    05:00 +17°C° 0 mm 10 m/s 720 mmHg 34%
    06:00 +18°C° 0 mm 10 m/s 720 mmHg 33%
    07:00 +18°C° 0 mm 9 m/s 721 mmHg 33%
    08:00 +19°C° 0 mm 9 m/s 721 mmHg 29%
    09:00 +22°C° 0 mm 9 m/s 721 mmHg 25%
    10:00 +24°C° 0 mm 8 m/s 721 mmHg 22%
    11:00 +26°C° 0 mm 8 m/s 721 mmHg 20%
    12:00 +27°C° 0 mm 7 m/s 721 mmHg 18%
    13:00 +29°C° 0 mm 7 m/s 720 mmHg 16%
    14:00 +29°C° 0 mm 6 m/s 720 mmHg 15%
    15:00 +29°C° 0 mm 6 m/s 719 mmHg 15%
    16:00 +30°C° 0 mm 6 m/s 719 mmHg 14%
    17:00 +29°C° 0 mm 6 m/s 719 mmHg 16%
    18:00 +28°C° 0 mm 6 m/s 719 mmHg 17%
    19:00 +27°C° 0 mm 6 m/s 719 mmHg 18%
    20:00 +27°C° 0 mm 6 m/s 719 mmHg 20%
    21:00 +26°C° 0 mm 7 m/s 719 mmHg 22%
    22:00 +24°C° 0 mm 8 m/s 720 mmHg 24%
    23:00 +23°C° 0 mm 8 m/s 720 mmHg 26%

    Après-demain, 28 Avril, Dimanche

    Heure Température Précipitation Vent Pression Humidité
    00:00 +22°C° 0 mm 8 m/s 719 mmHg 27%
    01:00 +22°C° 0 mm 8 m/s 719 mmHg 29%
    02:00 +21°C° 0 mm 8 m/s 719 mmHg 29%
    03:00 +21°C° 0 mm 8 m/s 719 mmHg 30%
    04:00 +21°C° 0 mm 8 m/s 719 mmHg 30%
    05:00 +21°C° 0 mm 8 m/s 719 mmHg 30%
    06:00 +21°C° 0 mm 7 m/s 719 mmHg 30%
    07:00 +21°C° 0 mm 7 m/s 720 mmHg 30%
    08:00 +23°C° 0 mm 7 m/s 720 mmHg 26%
    09:00 +24°C° 0 mm 7 m/s 720 mmHg 23%
    10:00 +27°C° 0 mm 6 m/s 720 mmHg 19%
    11:00 +28°C° 0 mm 5 m/s 719 mmHg 17%
    12:00 +30°C° 0 mm 4 m/s 719 mmHg 15%
    13:00 +31°C° 0 mm 3 m/s 718 mmHg 14%
    14:00 +31°C° 0 mm 3 m/s 718 mmHg 13%
    15:00 +33°C° 0 mm 3 m/s 717 mmHg 13%
    16:00 +32°C° 0 mm 2 m/s 716 mmHg 12%
    17:00 +32°C° 0 mm 2 m/s 716 mmHg 13%
    18:00 +31°C° 0 mm 2 m/s 716 mmHg 13%
    19:00 +31°C° 0 mm 2 m/s 716 mmHg 14%
    20:00 +30°C° 0 mm 2 m/s 716 mmHg 15%
    21:00 +29°C° 0 mm 2 m/s 716 mmHg 15%
    22:00 +29°C° 0 mm 3 m/s 716 mmHg 16%
    23:00 +28°C° 0 mm 4 m/s 716 mmHg 18%

    29 Avril, Lundi

    Heure Température Précipitation Vent Pression Humidité
    00:00 +27°C° 0 mm 5 m/s 715 mmHg 19%
    01:00 +27°C° 0 mm 5 m/s 715 mmHg 21%
    02:00 +26°C° 0 mm 6 m/s 714 mmHg 21%
    03:00 +26°C° 0 mm 6 m/s 714 mmHg 21%
    04:00 +26°C° 0 mm 7 m/s 714 mmHg 21%
    05:00 +26°C° 0 mm 6 m/s 714 mmHg 22%
    06:00 +26°C° 0 mm 6 m/s 714 mmHg 23%
    07:00 +26°C° 0 mm 6 m/s 715 mmHg 23%
    08:00 +27°C° 0 mm 6 m/s 715 mmHg 22%
    09:00 +29°C° 0 mm 7 m/s 715 mmHg 21%
    10:00 +30°C° 0 mm 7 m/s 716 mmHg 20%
    11:00 +32°C° 0 mm 7 m/s 716 mmHg 18%
    12:00 +33°C° 0 mm 6 m/s 715 mmHg 17%
    13:00 +34°C° 0 mm 5 m/s 715 mmHg 15%
    14:00 +34°C° 0 mm 6 m/s 715 mmHg 14%
    15:00 +34°C° 0 mm 6 m/s 715 mmHg 14%
    16:00 +35°C° 0 mm 7 m/s 715 mmHg 13%
    17:00 +33°C° 0 mm 8 m/s 715 mmHg 16%
    18:00 +32°C° 0 mm 9 m/s 715 mmHg 20%
    19:00 +29°C° 0 mm 11 m/s 716 mmHg 23%
    20:00 +29°C° 0 mm 10 m/s 716 mmHg 24%
    21:00 +28°C° 0 mm 9 m/s 717 mmHg 24%
    22:00 +27°C° 0 mm 8 m/s 717 mmHg 25%
    23:00 +27°C° 0 mm 7 m/s 717 mmHg 27%

    30 Avril, Mardi

    Heure Température Précipitation Vent Pression Humidité
    00:00 +26°C° 0 mm 5 m/s 717 mmHg 28%
    01:00 +25°C° 0 mm 4 m/s 717 mmHg 30%
    02:00 +25°C° 0 mm 4 m/s 717 mmHg 31%
    03:00 +23°C° 0 mm 4 m/s 717 mmHg 32%
    04:00 +23°C° 0 mm 4 m/s 717 mmHg 33%
    05:00 +23°C° 0 mm 5 m/s 717 mmHg 31%
    06:00 +24°C° 0 mm 6 m/s 718 mmHg 29%
    07:00 +24°C° 0 mm 7 m/s 718 mmHg 28%
    08:00 +27°C° 0 mm 7 m/s 719 mmHg 24%
    09:00 +28°C° 0 mm 7 m/s 719 mmHg 20%
    10:00 +31°C° 0 mm 8 m/s 719 mmHg 17%
    11:00 +32°C° 0 mm 8 m/s 719 mmHg 15%
    12:00 +33°C° 0 mm 8 m/s 718 mmHg 14%
    13:00 +34°C° 0 mm 8 m/s 718 mmHg 12%
    14:00 +34°C° 0 mm 7 m/s 717 mmHg 11%
    15:00 +34°C° 0 mm 7 m/s 717 mmHg 11%
    16:00 +34°C° 0 mm 7 m/s 716 mmHg 10%
    17:00 +33°C° 0 mm 6 m/s 716 mmHg 11%
    18:00 +33°C° 0 mm 5 m/s 716 mmHg 12%
    19:00 +32°C° 0 mm 4 m/s 716 mmHg 13%
    20:00 +30°C° 0 mm 4 m/s 716 mmHg 14%
    21:00 +30°C° 0 mm 4 m/s 717 mmHg 16%
    22:00 +29°C° 0 mm 5 m/s 717 mmHg 17%
    23:00 +28°C° 0 mm 5 m/s 717 mmHg 19%

    1 Mai, Mercredi

    Heure Température Précipitation Vent Pression Humidité
    00:00 +27°C° 0 mm 5 m/s 716 mmHg 20%
    01:00 +27°C° 0 mm 5 m/s 716 mmHg 22%
    02:00 +26°C° 0 mm 5 m/s 716 mmHg 23%
    03:00 +26°C° 0 mm 5 m/s 716 mmHg 24%
    04:00 +25°C° 0 mm 5 m/s 716 mmHg 24%
    05:00 +26°C° 0 mm 6 m/s 716 mmHg 23%
    06:00 +26°C° 0 mm 6 m/s 717 mmHg 22%
    07:00 +27°C° 0 mm 7 m/s 717 mmHg 21%
    08:00 +28°C° 0 mm 7 m/s 717 mmHg 19%
    09:00 +31°C° 0 mm 8 m/s 717 mmHg 16%
    10:00 +33°C° 0 mm 8 m/s 718 mmHg 13%
    11:00 +34°C° 0 mm 8 m/s 717 mmHg 12%
    12:00 +35°C° 0 mm 8 m/s 717 mmHg 11%
    13:00 +36°C° 0 mm 7 m/s 716 mmHg 9%
    14:00 +36°C° 0 mm 7 m/s 716 mmHg 9%
    15:00 +36°C° 0 mm 7 m/s 715 mmHg 9%
    16:00 +36°C° 0 mm 7 m/s 715 mmHg 8%
    17:00 +35°C° 0 mm 6 m/s 715 mmHg 9%
    18:00 +34°C° 0 mm 4 m/s 715 mmHg 10%
    19:00 +33°C° 0 mm 3 m/s 715 mmHg 11%
    20:00 +33°C° 0 mm 4 m/s 715 mmHg 12%
    21:00 +32°C° 0 mm 4 m/s 715 mmHg 14%
    22:00 +30°C° 0 mm 5 m/s 715 mmHg 15%
    23:00 +29°C° 0 mm 5 m/s 715 mmHg 17%
    Voir plus